Regional Weather Roundup
Issued by NWS

Home | Current Version | Previous Version | Graphics & Text | Print | Product List | Glossary On
Versions: 1 2 3 4 5 6 7 8 9 10 11 12 13 14 15 16 17 18 19 20 21 22 23 24 25 26 27 28 29 30 31 32 33 34 35 36 37 38 39 40 41 42 43 44 45 46 47 48 49 50
000
ASUS44 KMEG 220110
RWRTN
TENNESSEE HOURLY STATE WEATHER ROUNDUP
NATIONAL WEATHER SERVICE MEMPHIS TN
800 PM CDT SUN MAY 21 2017

TNZ002-004-019-021-049-052-054-088>092-220200-
WEST TENNESSEE

CITY           SKY/WX    TMP DP  RH WIND       PRES   REMARKS
MEMPHIS INTL   CLOUDY    73  54  51 NW12      30.09R
NWS MEMPHIS      N/A     71 N/A N/A MISG        N/A
JACKSON        CLOUDY    73  55  53 W6        30.08R
DYERSBURG      CLEAR     73  55  53 W6        30.09R
SOMERVILLE     CLEAR     72  55  56 CALM      30.08R
COVINGTON      CLEAR     72  55  56 NW7       30.09R
UNION CITY     CLEAR     72  55  56 W5        30.06R
BOLIVAR        CLEAR     70  55  60 W5        30.08R
PARIS          CLEAR     70  55  60 W5        30.06R
HUNTINGDON     CLEAR     72  57  60 CALM      30.06R
SELMER         CLEAR     70  66  88 CALM      30.07R
SAVANNAH       CLEAR     75  64  69 CALM      30.06R
$$

TNZ008-025-027-028-033-062-065-066-220200-
NORTH MIDDLE TENNESSEE

CITY           SKY/WX    TMP DP  RH WIND       PRES   REMARKS
NASHVILLE      MOCLDY    77  66  68 W8        30.05R
PORTLAND       CLEAR     73  66  78 CALM      30.03R
CLARKSVILLE    MOCLDY    73  56  54 W9        30.05R
SMYRNA         MOCLDY    76  67  73 W6        30.05R
COOKEVILLE     PTCLDY    72  68  88 CALM      30.04R
GALLATIN       PTCLDY    77  68  73 VRB5      30.06R
CROSSVILLE     PTCLDY    69  66  90 S5        30.10S
$$

TNZ061-075-076-078-094-096-097-220200-
SOUTH MIDDLE TENNESSEE

CITY           SKY/WX    TMP DP  RH WIND       PRES   REMARKS
FAYETTEVILLE   MOCLDY    75  70  83 S6        30.07R
TULLAHOMA      PTCLDY    70  66  88 S5        30.08R
WINCHESTER     CLOUDY    73  68  83 N8        30.08R
MCMINNVILLE    CLEAR     73  70  88 SW3       30.07R
COLUMBIA       MOCLDY    75  66  73 VRB5      30.04R
SHELBYVILLE    MOCLDY    73  70  88 CALM      30.05R
$$

TNZ017-018-042-046-047-220200-
NORTHEAST TENNESSEE

CITY           SKY/WX    TMP DP  RH WIND       PRES   REMARKS
TRI CITIES     MOCLDY    65  64  97 CALM      30.11R
ELIZABETHTON   DRIZZLE   66  64  94 CALM      30.11S
$$

TNZ012-013-036-069-073-074-220200-
CENTRAL EAST TENNESSEE

CITY           SKY/WX    TMP DP  RH WIND       PRES   REMARKS
KNOXVILLE      CLOUDY    72  65  78 NE5       30.06S
OAK RIDGE      MOCLDY    73  65  75 CALM      30.08R
GATLINBURG     CLEAR     66  64  94 CALM      30.07S
MORRISTOWN     CLEAR     68  66  94 SE5       30.08F
JACKSBORO      CLOUDY    72  66  83 CALM      30.10S
$$

TNZ083-085-099-220200-
SOUTHEAST TENNESSEE

CITY           SKY/WX    TMP DP  RH WIND       PRES   REMARKS
CHATTANOOGA    MOCLDY    77  67  71 SW5       30.07R
$$

SKY/WX REPORTED AS FAIR MEANS FEW OR NO CLOUDS BELOW
12 THOUSAND FEET.





USA.gov is the U.S. government's official web portal to all federal, state and local government web resources and services.